This is the latest recevied weather packets stored in our database for station/object KD0RIH. If no packets are shown the sender has not sent any weather packets the latest 1 day(s).
| Time | Temp. | Humidity | Pressure | Rain* | Wind** | Luminosity | Snow |
|---|---|---|---|---|---|---|---|
| 1778034508 | 11.67° C | 70% | 1012.5 hPa | 0 mm | 0 m/s | 0 W/m² | - |
| 1778034206 | 11.11° C | 75% | 1012.2 hPa | 0 mm | 0.45 m/s, 298° | 0 W/m² | - |
| 1778033904 | 11.11° C | 75% | 1012.2 hPa | 0 mm | 0 m/s | 0 W/m² | - |
| 1778033600 | 11.11° C | 74% | 1012.3 hPa | 0 mm | 0 m/s | 0 W/m² | - |
| 1778033297 | 11.11° C | 73% | 1012.1 hPa | 0 mm | 0 m/s | 0 W/m² | - |
| 1778032995 | 11.67° C | 73% | 1012 hPa | 0 mm | 0 m/s | 0 W/m² | - |
| 1778032693 | 11.67° C | 72% | 1012.2 hPa | 0 mm | 0 m/s | 0 W/m² | - |
| 1778032390 | 11.67° C | 71% | 1012.1 hPa | 0 mm | 0 m/s | 0 W/m² | - |
| 1778032086 | 11.67° C | 71% | 1012.1 hPa | 0 mm | 0 m/s | 0 W/m² | - |
| 1778031783 | 11.67° C | 70% | 1011.9 hPa | 0 mm | 0 m/s | 0 W/m² | - |
| 1778031480 | 11.67° C | 70% | 1012.1 hPa | 0 mm | 0 m/s | 0 W/m² | - |
| 1778031177 | 11.67° C | 69% | 1012.1 hPa | 0 mm | 0.45 m/s, 287° | 0 W/m² | - |
| 1778030873 | 11.67° C | 70% | 1012 hPa | 0 mm | 0 m/s | 0 W/m² | - |
| 1778030570 | 11.67° C | 69% | 1011.9 hPa | 0 mm | 0 m/s | 0 W/m² | - |
| 1778030268 | 12.22° C | 69% | 1011.6 hPa | 0 mm | 0.45 m/s, 270° | 1 W/m² | - |
| 1778029964 | 12.22° C | 69% | 1011.7 hPa | 0 mm | 0.89 m/s, 249° | 1 W/m² | - |
| 1778029662 | 12.22° C | 68% | 1011.8 hPa | 0 mm | 0.45 m/s, 292° | 2 W/m² | - |
| 1778029359 | 12.22° C | 68% | 1011.9 hPa | 0 mm | 0 m/s | 3 W/m² | - |
| 1778029057 | 12.78° C | 66% | 1011.6 hPa | 0 mm | 0.45 m/s, 288° | 4 W/m² | - |
| 1778028753 | 12.78° C | 63% | 1011.6 hPa | 0 mm | 0 m/s | 5 W/m² | - |
| 1778028449 | 12.78° C | 59% | 1011.5 hPa | 0 mm | 0 m/s | 9 W/m² | - |
| 1778028147 | 12.78° C | 57% | 1011.5 hPa | 0 mm | 0 m/s | 14 W/m² | - |
| 1778027842 | 13.33° C | 53% | 1011.4 hPa | 0 mm | 0 m/s | 14 W/m² | - |
| 1778027539 | 13.33° C | 53% | 1011.1 hPa | 0 mm | 0 m/s | 20 W/m² | - |
| 1778027235 | 13.33° C | 52% | 1011.2 hPa | 0 mm | 0 m/s | 24 W/m² | - |
* Rain latest hour (hover to see other rain measurements)
** Current wind speed in m/s (hover to see current wind gust speed)